SERIAL,TIME,MODEL,SN(OPTODE),OXYGEN,SATURATION,TEMPERATURE,CALPHASE,TCPHASE,C1RPH,C2RPH,C1AMP,C2AMP,RAWTEMP,CHECK
7,1449062228,4330,1171,216.1840972900390600,57.5914802551269500,7.3646469116210940,37.0342407226562500,38.2290611267089840,40.1318702697753900,1.9028019905090332,1085.1519775390625000,1056.5119628906250000,650.9367065429688000,23735
7,1449062820,4330,1171,208.0415954589843800,55.9941711425781250,7.7814450263977050,37.2771415710449200,38.4687194824218750,40.4121093750000000,1.9433900117874146,1093.4160156250000000,1051.1979980468750000,638.3623046875000000,11492
7,1449063433,4330,1171,197.8571929931640600,54.0350914001464840,8.3787899017333980,37.5683593750000000,38.7560501098632800,40.7501983642578100,1.9941480159759521,1103.0219726562500000,1043.9010009765625000,620.2473144531250000,12012
7,1449064040,4330,1171,187.5133972167968800,52.0033607482910160,9.0155429840087890,37.8847389221191400,39.0681991577148440,41.1321105957031250,2.0639109611511230,1112.7939453125000000,1034.3549804687500000,600.8189697265625000,39867
7,1449064589,4330,1171,185.6941070556640600,52.4047889709472660,9.7468852996826170,37.6053085327148440,38.7925109863281250,40.9157104492187500,2.1231989860534670,1102.0520019531250000,1024.7700195312500000,578.3587036132812000,34306
7,1449065195,4330,1171,191.5675048828125000,55.0974311828613300,10.5531902313232420,36.7801818847656250,37.9784011840820300,40.1604499816894500,2.1820449829101562,1072.0729980468750000,1014.2509765625000000,553.4229125976562000,20441
7,1449065721,4330,1171,199.3238067626953000,58.5812606811523440,11.4865999221801760,35.7907485961914060,37.0021781921386700,39.2477302551269500,2.2455439567565920,1036.1070556640625000,1002.1699829101562000,524.3413696289062000,39119
7,1449066322,4330,1171,203.5973968505859400,60.7854118347168000,12.1749801635742190,35.1706809997558600,36.3903999328613300,38.6731910705566400,2.2827908992767334,1013.1979980468750000,992.5026855468750000,502.7546997070312500,40518
7,1449068568,4330,1171,233.4259948730468800,73.6867675781250000,14.6845102310180660,32.2672386169433600,33.5257301330566400,35.9282913208007800,2.4025568962097170,906.2390747070312000,960.2067871093750000,423.1791992187500000,59373
7,1449068589,4330,1171,233.3365936279297000,73.7144165039062500,14.7193803787231450,32.2550201416015600,33.5136795043945300,35.9185905456543000,2.4049069881439210,905.7056884765625000,959.2692260742188000,422.0646057128906000,45706
7,1449068610,4330,1171,233.2189941406250000,73.7190933227539000,14.7455101013183600,32.2485008239746100,33.5072402954101560,35.9167404174804700,2.4094998836517334,905.3651733398438000,958.6174926757812000,421.2294006347656000,34561
7,1449068631,4330,1171,233.1239013671875000,73.7562637329101600,14.7875003814697270,32.2331008911132800,33.4920501708984400,35.9035606384277340,2.4115068912506104,904.7545776367188000,957.9365844726562000,419.8872070312500000,39594
7,1449068653,4330,1171,232.9409027099609400,73.7987365722656200,14.8502597808837890,32.2123908996582000,33.4716186523437500,35.8864212036132800,2.4148030281066895,903.9411010742188000,957.3469238281250000,417.8803100585937500,22081
7,1449068708,4330,1171,233.2001037597656200,73.9757766723632800,14.9095001220703120,32.1710014343261700,33.4307785034179700,35.8489494323730500,2.4181671142578125,902.4733886718750000,957.1525268554688000,415.9855041503906000,2128
7,1449068749,4330,1171,233.2740020751953000,74.0621337890625000,14.9487400054931640,32.1485710144043000,33.4086494445800800,35.8278007507324200,2.4191589355468750,901.5496826171875000,956.5053710937500000,414.7298889160156000,6753
7,1449068770,4330,1171,233.3067016601562500,74.0996017456054700,14.9656400680542000,32.1387710571289060,33.3989791870117200,35.8190803527832000,2.4200971126556396,901.0775756835938000,955.7081298828125000,414.1889953613281000,47134
7,1449068801,4330,1171,233.4022979736328000,74.2314224243164000,15.0288600921630860,32.1037902832031250,33.3644599914550800,35.7882804870605500,2.4238200187683105,899.7725830078125000,955.4584960937500000,412.1655883789062500,13307
7,1449068823,4330,1171,233.5699005126953000,74.3193435668945300,15.0504302978515620,32.0849113464355500,33.3458290100097660,35.7700195312500000,2.4241869449615480,898.9697265625000000,954.7055053710938000,411.4750976562500000,17851
7,1449068852,4330,1171,233.8247070312500000,74.4803771972656200,15.1001501083374020,32.0488014221191400,33.3102111816406250,35.7363700866699200,2.4261550903320312,897.6699829101562000,954.1906127929688000,409.8830871582031000,14779
7,1449068873,4330,1171,234.0084991455078000,74.5725708007812500,15.1210498809814450,32.0295600891113300,33.2912216186523440,35.7181282043457000,2.4269099235534670,896.7929077148438000,953.5059204101562000,409.2137145996094000,40300
7,1449068894,4330,1171,234.2183074951172000,74.6902465820312500,15.1526298522949220,32.0038185119628900,33.2658309936523440,35.6959495544433600,2.4301218986511230,895.7775878906250000,952.9570922851562000,408.2023010253906000,44889
7,1449068925,4330,1171,234.6461029052734400,74.8515625000000000,15.1680202484130860,31.9750900268554700,33.2374801635742200,35.6673393249511700,2.4298551082611084,894.7221069335938000,952.8801879882812000,407.7094116210937500,9751
7,1449068947,4330,1171,234.8282928466797000,74.9303512573242200,15.1808204650878900,31.9595794677734380,33.2221794128418000,35.6530685424804700,2.4308850765228270,894.1812744140625000,952.5095214843750000,407.2991943359375000,25254
7,1449068968,4330,1171,235.0321044921875000,75.0112991333007800,15.1906700134277340,31.9449691772460940,33.2077598571777340,35.6392517089843750,2.4314880371093750,893.6895141601562000,952.1597290039062000,406.9834899902344000,48744
7,1449068997,4330,1171,235.2541961669922000,75.1480178833007800,15.2313404083251950,31.9144401550292970,33.1776390075683600,35.6100311279296900,2.4323880672454834,892.5740966796875000,952.1541748046875000,405.6806030273437500,21224
7,1449069018,4330,1171,235.4662017822265600,75.2465972900390600,15.2503795623779300,31.8949203491210940,33.1583900451660160,35.5893096923828100,2.4309229850769043,891.7875976562500000,951.5587158203125000,405.0703125000000000,24648
7,1449069039,4330,1171,235.6479949951172000,75.3307037353515600,15.2664203643798830,31.8784694671630860,33.1421508789062500,35.5754508972168000,2.4333040714263916,891.2045898437500000,951.2626953125000000,404.5562133789062500,64370
7,1449069063,4330,1171,235.8121948242187500,75.4188232421875000,15.2883701324462890,31.8597908020019530,33.1237182617187500,35.5563392639160160,2.4326250553131104,890.4544067382812000,951.0048217773438000,403.8526000976562500,36577
7,1449069084,4330,1171,235.8395996093750000,75.4926528930664000,15.3284196853637700,31.8392906188964840,33.1035003662109400,35.5368118286132800,2.4333109855651855,889.5974121093750000,950.6472778320312000,402.5686035156250000,61827
7,1449069105,4330,1171,236.0220947265625000,75.6187820434570300,15.3701295852661130,31.8104896545410160,33.0750808715820300,35.5101699829101560,2.4350891113281250,888.5852050781250000,950.1535034179688000,401.2314147949219000,4994
7,1449069126,4330,1171,236.4160003662109400,75.7634201049804700,15.3814201354980470,31.7858505249023440,33.0507698059082000,35.4867210388183600,2.4359509944915770,887.6671142578125000,949.8405761718750000,400.8692016601562500,10329
7,1449069147,4330,1171,236.6011962890625000,75.8789291381836000,15.4158802032470700,31.7601394653320300,33.0254096984863300,35.4613609313964840,2.4359591007232666,886.6757812500000000,949.5053710937500000,399.7641906738281000,10887
7,1449069169,4330,1171,236.8921966552734400,76.0236816406250000,15.4474201202392580,31.7310600280761720,32.9967117309570300,35.4342689514160160,2.4375529289245605,885.6782226562500000,949.2493896484375000,398.7524108886719000,51106
7,1449069192,4330,1171,237.1683959960937500,76.1619262695312500,15.4777898788452150,31.7029495239257800,32.9689788818359400,35.4079895019531250,2.4390110969543457,884.5322875976562000,948.8754272460938000,397.7782897949219000,12568
7,1449069213,4330,1171,237.2994995117187500,76.2658462524414000,15.5156097412109380,31.6788692474365230,32.9452209472656250,35.3838996887207000,2.4386830329895020,883.4854736328125000,948.3118286132812000,396.5647888183594000,45144
7,1449069234,4330,1171,237.6318054199218800,76.3898468017578100,15.5261001586914060,31.6573295593261720,32.9239692687988300,35.3646202087402340,2.4406590461730957,882.8339233398438000,948.0944824218750000,396.2279968261719000,46169
7,1449069255,4330,1171,237.8014984130859400,76.4518966674804700,15.5306701660156250,31.6467399597167970,32.9135093688964840,35.3557586669921900,2.4422450065612793,882.3690185546875000,947.8513793945312000,396.0815124511719000,25128
7,1449069277,4330,1171,237.9250030517578000,76.5039062500000000,15.5381898880004880,31.6372890472412100,32.9041900634765600,35.3463706970214840,2.4421839714050293,881.9177246093750000,947.6339721679688000,395.8399963378906000,26659
7,1449069298,4330,1171,238.0870971679687500,76.5625534057617200,15.5421400070190430,31.6274299621582030,32.8944587707519500,35.3368911743164060,2.4424290657043457,881.6536254882812000,947.4688720703125000,395.7131958007812500,18487
7,1449069321,4330,1171,238.1262969970703000,76.5798492431640600,15.5450201034545900,31.6242504119873050,32.8913307189941400,35.3332595825195300,2.4419329166412354,881.5223999023438000,947.4509887695312000,395.6210021972656000,38841
7,1449069342,4330,1171,238.1381988525390600,76.6036529541015600,15.5571899414062500,31.6179409027099600,32.8851013183593750,35.3268203735351560,2.4417190551757812,881.3566284179688000,947.3198242187500000,395.2301025390625000,24532
7,1449069363,4330,1171,238.1634979248047000,76.6337966918945300,15.5705995559692380,31.6103496551513670,32.8776206970214840,35.3183708190918000,2.4407579898834230,880.9691772460938000,947.0640869140625000,394.7998962402344000,25949
7,1449069385,4330,1171,238.1091003417968800,76.6470870971679700,15.5893602371215820,31.6043701171875000,32.8717117309570300,35.3136405944824200,2.4419250488281250,880.7435302734375000,946.9852294921875000,394.1976928710937500,29545
7,1449069406,4330,1171,237.9734039306640600,76.6245803833007800,15.6022500991821290,31.6046905517578120,32.8720283508300800,35.3137702941894500,2.4417340755462646,880.6785278320312000,946.7415161132812000,393.7838134765625000,14345
7,1449069427,4330,1171,237.5901947021484400,76.5460968017578100,15.6296796798706050,31.6106605529785160,32.8779182434082000,35.3193817138671900,2.4414598941802980,881.0139160156250000,946.6461181640625000,392.9031066894531000,22932
7,1449069450,4330,1171,237.1835937500000000,76.4361267089843800,15.6425104141235350,31.6249694824218750,32.8920402526855500,35.3343086242675800,2.4422760009765625,881.5579833984375000,946.6954956054688000,392.4913024902344000,5636
7,1449069471,4330,1171,236.8011932373047000,76.3222579956054700,15.6482601165771480,31.6411895751953120,32.9080390930175800,35.3503684997558600,2.4423289299011230,882.0468750000000000,946.3306274414062000,392.3067932128906000,14829
7,1449069493,4330,1171,236.5574951171875000,76.2489166259765600,15.6514596939086910,31.6513805389404300,32.9180984497070300,35.3588600158691400,2.4407579898834230,882.4475708007812000,946.2274169921875000,392.2038879394531000,15864
7,1449069514,4330,1171,236.1911010742187500,76.1615982055664000,15.6703395843505860,31.6609306335449220,32.9275207519531250,35.3687705993652340,2.4412539005279540,882.7357788085938000,946.0355834960938000,391.5978088378906000,40573
7,1449069535,4330,1171,235.7292938232422000,76.0353317260742200,15.6842899322509770,31.6771907806396500,32.9435691833496100,35.3858299255371100,2.4422678947448730,883.2968139648438000,945.8488769531250000,391.1495971679687500,26393
7,1449069556,4330,1171,234.9933929443359400,75.8206710815429700,15.6983098983764650,31.7073097229003900,32.9732818603515600,35.4170494079589840,2.4437708854675293,884.4426879882812000,945.7249755859375000,390.6995849609375000,26247
7,1449069579,4330,1171,234.3339996337890600,75.6175765991211000,15.7042903900146480,31.7374496459960940,33.0030212402343750,35.4463005065918000,2.4432830810546875,885.6356811523438000,945.6962280273438000,390.5072937011719000,63884
7,1449069601,4330,1171,233.8576965332031200,75.4724273681640600,15.7095699310302730,31.7586708068847660,33.0239601135253900,35.4667701721191400,2.4428179264068604,886.3358154296875000,945.5067138671875000,390.3375854492187500,24347
7,1449069622,4330,1171,233.3162994384765600,75.3102493286132800,15.7173900604248050,31.7823905944824220,33.0473594665527340,35.4880981445312500,2.4407420158386230,887.0192260742188000,945.3889160156250000,390.0867919921875000,9577
7,1449069643,4330,1171,232.7557983398437500,75.1582794189453100,15.7354202270507810,31.8018703460693360,33.0665702819824200,35.5070610046386700,2.4404909610748290,887.8049926757812000,945.2120971679688000,389.5072937011719000,19883
7,1449069664,4330,1171,232.5097961425781200,75.1109237670898400,15.7554101943969730,31.8048992156982420,33.0695686340332000,35.5091209411621100,2.4395520687103270,887.8284301757812000,944.9874877929688000,388.8652038574219000,21751
7,1449069685,4330,1171,232.2837066650390600,75.0657882690429700,15.7728300094604500,31.8081798553466800,33.0727996826171900,35.5119400024414060,2.4391400814056396,887.8906860351562000,945.0294799804688000,388.3057861328125000,644
7,1449069709,4330,1171,232.2543945312500000,75.0889663696289000,15.7931900024414060,31.8002490997314450,33.0649795532226560,35.5061187744140600,2.4411389827728270,887.7813720703125000,944.8087158203125000,387.6517028808594000,34300
7,1449069730,4330,1171,232.0451965332031200,75.0515365600586000,15.8120803833007810,31.8019199371337900,33.0666313171386700,35.5084190368652340,2.4417951107025146,887.8234863281250000,944.5720825195312000,387.0447082519531000,39743
7,1449069751,4330,1171,231.8507995605468800,75.0354919433593800,15.8413400650024410,31.7978096008300780,33.0625686645507800,35.5041389465332000,2.4415659904479980,887.4572753906250000,944.2105712890625000,386.1043090820312500,50674
7,1449069772,4330,1171,231.6916961669922000,75.0044097900390600,15.8540897369384770,31.7999897003173830,33.0647201538085940,35.5069007873535160,2.4421839714050293,887.6912841796875000,944.1793823242188000,385.6944885253906000,41667
7,1449069801,4330,1171,231.6157073974609400,75.0215606689453100,15.8802204132080080,31.7917003631591800,33.0565414428710940,35.4986610412597660,2.4421160221099854,887.3641967773438000,944.3712768554688000,384.8547973632812500,33106
7,1449069823,4330,1171,231.6325073242187500,75.0549697875976600,15.8977098464965820,31.7823791503906250,33.0473518371582000,35.4909400939941400,2.4435880184173584,887.1378784179688000,943.8925781250000000,384.2923889160156000,36646
7,1449069846,4330,1171,231.3677978515625000,75.0151519775390600,15.9264802932739260,31.7822608947753900,33.0472297668457000,35.4883117675781250,2.4410860538482666,887.0175170898438000,943.5401000976562000,383.3676147460937500,20324
7,1449069875,4330,1171,230.8930053710937500,74.9316864013671900,15.9707002639770500,31.7856502532959000,33.0505790710449200,35.4950294494628900,2.4444499015808105,887.1024780273438000,943.5446166992188000,381.9455871582031000,29475
7,1449069904,4330,1171,230.4651947021484400,74.8615570068359400,16.0138492584228500,31.7870807647705080,33.0519905090332000,35.4953002929687500,2.4433140754699707,886.9824218750000000,943.2271118164062000,380.5580139160156000,9788
7,1449069925,4330,1171,230.1808013916015600,74.8308715820312500,16.0526695251464840,31.7835597991943360,33.0485115051269500,35.4932518005371100,2.4447400569915770,886.8961181640625000,942.5853881835938000,379.3093872070312500,54163
7,1449069955,4330,1171,229.8491973876953000,74.7770614624023400,16.0866699218750000,31.7846908569335940,33.0496292114257800,35.4962387084960940,2.4466090202331543,886.8729858398438000,942.2427978515625000,378.2157897949219000,12948
7,1449070010,4330,1171,229.9207000732422000,74.8753967285156200,16.1338996887207030,31.7586593627929700,33.0239410400390600,35.4745483398437500,2.4506070613861084,885.8472900390625000,942.2766113281250000,376.6958923339844000,34875
7,1449070053,4330,1171,230.0198059082031200,75.0753326416015600,16.2393894195556640,31.7044506072998050,32.9704589843750000,35.4226989746093750,2.4522399902343750,883.8082885742188000,941.4116821289062000,373.3008117675781000,13096
7,1449070074,4330,1171,230.1228027343750000,75.1430664062500000,16.2608203887939450,31.6892509460449220,32.9554595947265600,35.4096488952636700,2.4541931152343750,883.2255249023438000,940.5004272460938000,372.6109924316406000,48581
7,1449070095,4330,1171,230.0326995849609400,75.2225875854492200,16.3292808532714840,31.6619091033935550,32.9284782409668000,35.3855895996093750,2.4571080207824707,882.1013183593750000,939.7916870117188000,370.4063110351562500,55374
7,1449070119,4330,1171,230.3728027343750000,75.3842391967773400,16.3609504699707030,31.6298599243164060,32.8968582153320300,35.3567390441894500,2.4598770141601562,880.7631835937500000,939.2128906250000000,369.3865051269531000,59040
7,1449070140,4330,1171,231.0888977050781200,75.6324996948242200,16.3696708679199220,31.5896301269531250,32.8571701049804700,35.3217391967773440,2.4645690917968750,879.3300781250000000,938.6713256835938000,369.1054992675781000,38482
7,1449070161,4330,1171,231.7397003173828000,75.9047698974609400,16.4066600799560550,31.5393791198730470,32.8075904846191400,35.2739410400390600,2.4663469791412354,877.3624267578125000,938.3265991210938000,367.9142150878906000,32275
7,1449070182,4330,1171,231.4293975830078000,76.0708618164062500,16.5737895965576170,31.4776496887207030,32.7466812133789060,35.2159004211425800,2.4692230224609375,875.0628051757812000,937.5827026367188000,362.5285034179687500,35014
7,1449070203,4330,1171,231.7803955078125000,76.1950225830078100,16.5792503356933600,31.4573707580566400,32.7266807556152340,35.2007102966308600,2.4740369319915770,874.2786865234375000,936.5266723632812000,362.3522033691406000,10427
7,1449070225,4330,1171,232.2109985351562500,76.3378677368164000,16.5800399780273440,31.4353599548339840,32.7049598693847660,35.1823883056640600,2.4774320125579834,873.2512817382812000,936.1096801757812000,362.3268127441406000,11438
7,1449070248,4330,1171,232.8031005859375000,76.5324630737304700,16.5799999237060550,31.4058303833007800,32.6758308410644500,35.1563911437988300,2.4805600643157960,872.2723999023438000,935.8917236328125000,362.3280029296875000,8411
7,1449070269,4330,1171,233.2212066650390600,76.7057800292968800,16.6022300720214840,31.3747005462646500,32.6451110839843750,35.1271705627441400,2.4820559024810790,871.2498779296875000,935.7769775390625000,361.6116027832031000,2884
7,1449070290,4330,1171,233.3506927490234400,76.8123931884765600,16.6418590545654300,31.3499908447265620,32.6207313537597660,35.1027793884277340,2.4820559024810790,870.2015991210938000,935.4091796875000000,360.3338012695312500,47381
7,1449070311,4330,1171,233.3097991943359400,76.9474487304687500,16.7337493896484380,31.3095703125000000,32.5808601379394500,35.0658683776855500,2.4850161075592040,868.8228149414062000,934.9901733398438000,357.3705139160156000,43383
7,1449070333,4330,1171,233.1139068603515600,77.0533828735351600,16.8393001556396500,31.2705802917480470,32.5423812866210940,35.0281410217285160,2.4857559204101562,867.0952758789062000,934.0604858398438000,353.9653015136719000,7796
7,1449070354,4330,1171,233.3739013671875000,77.2043609619140600,16.8794994354248050,31.2392501831054700,32.5114707946777340,35.0015602111816400,2.4900889396667480,865.9393920898438000,933.3682861328125000,352.6679992675781000,38370
7,1449070377,4330,1171,233.5753021240234400,77.3389129638671900,16.9214401245117200,31.2100601196289060,32.4826698303222660,34.9768905639648440,2.4942250251770020,864.8956909179688000,932.6948242187500000,351.3146057128906000,54615
7,1449070398,4330,1171,233.4546966552734400,77.4948272705078100,17.0424003601074220,31.1605491638183600,32.4338188171386700,34.9311408996582000,2.4973139762878420,863.0153808593750000,931.9694824218750000,347.4094848632812500,47944
7,1449070419,4330,1171,233.9046020507812500,77.7750778198242200,17.1230297088623050,31.1014003753662100,32.3754692077636700,34.8761901855468750,2.5007250308990480,860.6693725585938000,930.9987182617188000,344.8055114746094000,45836
7,1449070441,4330,1171,234.6636047363281200,78.1129226684570300,17.1754894256591800,31.0398693084716800,32.3147506713867200,34.8204002380371100,2.5056529045104980,858.3737182617188000,929.9815063476562000,343.1109924316406000,26201
7,1449070462,4330,1171,235.3495941162109400,78.4317321777343800,17.2308292388916000,30.9810295104980470,32.2566986083984400,34.7676811218261700,2.5109860897064210,856.0488281250000000,929.1907958984375000,341.3230895996094000,25312
7,1449070483,4330,1171,236.1705017089843800,78.7476196289062500,17.2566699981689450,30.9289894104003900,32.2053489685058600,34.7202682495117200,2.5149149894714355,854.1353759765625000,928.4799194335938000,340.4884033203125000,2658
7,1449070506,4330,1171,237.0829925537109400,79.1641616821289000,17.3248291015625000,30.8537406921386720,32.1311111450195300,34.6502799987793000,2.5191729068756104,851.4755859375000000,927.9191284179688000,338.2854003906250000,50413
7,1449070527,4330,1171,237.7259979248047000,79.4840164184570300,17.3884906768798830,30.7932891845703120,32.0714607238769500,34.5925216674804700,2.5210568904876710,849.0095825195312000,927.1699829101562000,336.2278137207031000,19523
7,1449070549,4330,1171,239.3188934326172000,80.0972137451171900,17.4369602203369140,30.6946296691894530,31.9741191864013670,34.4983100891113300,2.5241849422454834,845.4899291992188000,926.5543823242188000,334.6607971191406000,4281
7,1449070570,4330,1171,240.0780029296875000,80.6421127319336000,17.6111698150634770,30.5795707702636720,31.8605995178222660,34.3887290954589840,2.5281300544738770,841.2427978515625000,925.8519897460938000,329.0270080566406000,40089
7,1449070591,4330,1171,242.1945953369140600,81.4505462646484400,17.6690406799316400,30.4531097412109380,31.7358303070068360,34.2682495117187500,2.5324170589447020,836.4818115234375000,924.6959838867188000,327.1547851562500000,20182
7,1449070612,4330,1171,244.6031951904297000,82.3955383300781200,17.7483100891113280,30.3044300079345700,31.5891304016113280,34.1271095275878900,2.5379710197448730,830.9478759765625000,923.8076171875000000,324.5899963378906000,37651
7,1449070635,4330,1171,247.3191070556640600,83.4353713989257800,17.8209209442138670,30.1465091705322270,31.4333305358886720,33.9754295349121100,2.5420989990234375,825.0584106445312000,923.0150756835938000,322.2401123046875000,50780
7,1449070665,4330,1171,250.7308959960937500,84.6569366455078100,17.8613605499267580,29.9725208282470700,31.2616596221923830,33.8097000122070300,2.5480420589447020,818.7127075195312000,922.3170166015625000,320.9309082031250000,58950
7,1449070686,4330,1171,252.8081970214843800,85.4128570556640600,17.8923301696777340,29.8652591705322270,31.1558303833007800,33.7072181701660160,2.5513920783996580,814.7478027343750000,921.6519775390625000,319.9284973144531000,41558
7,1449070715,4330,1171,256.0244140625000000,86.5700607299804700,17.9319190979003900,29.7048797607421880,30.9975891113281250,33.5533103942871100,2.5557169914245605,808.8259887695312000,921.1688232421875000,318.6465148925781000,22023
7,1449070744,4330,1171,258.2723083496094000,87.3457870483398400,17.9406204223632800,29.6021900177001950,30.8962707519531250,33.4552116394043000,2.5589370727539062,805.1381835937500000,920.9113769531250000,318.3648986816406000,39118
7,1449070799,4330,1171,260.7188110351562500,88.1832580566406200,17.9461593627929700,29.4935493469238280,30.7890892028808600,33.3463401794433600,2.5572509765625000,801.2640991210938000,921.1453857421875000,318.1856079101562500,49707